STARLINK-36959, 68060

Orbit data source: Space-Track

STARLINK-36959, 68060 is a payload satellite owned by SpaceX/Seattle (US) in LEO that was launched on Mon, 02 Mar 2026 UTC via an FALCON 9 launch vehicle from the Air Force Eastern Test Range (AFETR). Payload-class satellites include a variety of spacecraft equipped with specific instruments for various scientific and technological missions. These include communications satellites like Starlink; space stations such as the ISS; scientific satellites like the Hubble; Earth observation satellites from companies like Planet Labs, Umbra, and HawkEye 360; GPS; miniature CubeSats for education and research; and military/defense satellites.

Loading next visibility...
Identifier
68060, 2026-041W
Orbit
LEO
Country
Flag of USUS
Related business
Manufacturer
SpaceX/Seattle
Mission
Operational Commercial Communications
Bus & Motor
STARLINK V2MO, Unknown motor
Mass
575 kg wet, ~530 kg dry
Launch date (UTC)
2026-03-02 (2 months ago)
Launch vehicle
FALCON 9
Launch site
Air Force Eastern Test Range (AFETR)
Object type
Payload
Rocket body
Debris
Shape & HBR
Box + 2 Pan, 17.7 m
Radar Cross Section
36.964 m²

Expand to show TLE details & history
Last TLE update: 13 hours ago

TLE from 13 hours ago
0 STARLINK-36959
1 68060U 26041W   26118.85448261  .00025924  00000-0  67400-3 0  9991
2 68060  53.1604 176.5189 0001195  68.7520 291.3612 15.38784420  9074
Epoch: 2026-04-28T20:30Z
TLE epoch observation values (Epoch: 2026-04-28T20:30:27.297Z)
Latitude
-0.00003°
Longitude
12.08132°
Altitude
450.309 km
Speed
7.644 km/s
True Right ascension
11h 46m 04s
True Declination
0° 00' 00"
Sunlit
Object was in full shadow at epoch
Visualization orbit readout
Latitude
Unknown
Longitude
Unknown
Altitude
Unknown
Speed
Unknown
Apparent Right ascension
Unknown
Apparent Declination
Unknown
Sunlit
N/A
Visualization observer readout
Local Sidereal Time
17:11:51
Azimuth
Unknown
Elevation
Unknown
Doppler factor
Unknown
Orbital elements
Apogee altitude
450.776 km
Perigee altitude
449.144 km
Semi-major axis
6,828.097 km
Eccentricity
0.00012
Inclination
53.1604°
RAAN
176.5189°
Arg. of periapsis
68.752°
True anomaly
291.34845°
Mean anomaly
291.3612°
Eccentric anomaly
291.35482°
Mean motion
3.84675 °/min
Orbital period
93.59 mins
BSTAR
0.000674
Loading maneuver chart data...
Computing Atmospheric mass density...
Loading historical data...
Loading historical data...
Loading historical data...
Loading historical data...
Loading historical data...
Loading historical data...
Loading historical data...

Documentation

Showing up to 5 results
|